QPF
0.03 0.04 0.03 0.02 0.02 0.02 0.03 0.04 0.03 0.03 0.03 0.04 0.05 0.04 0.04 0.05 0.05 0.06 0.05 0.05 0.06 0.07 0.11 0.13 0.15 0.17 0.18 0.18 0.19 0.20 0.19 0.18 0.20 0.21 0.18 0.15 0.12 0.09 0.07 0.05 0.03 0.03 0.02
0.04 0.05 0.05 0.04 0.03 0.03 0.03 0.03 0.03 0.03 0.03 0.03 0.04 0.03 0.03 0.04 0.04 0.05 0.04 0.05 0.07 0.07 0.08 0.10 0.12 0.13 0.15 0.16 0.16 0.18 0.18 0.18 0.16 0.16 0.15 0.13 0.11 0.07 0.05 0.04 0.02 0.02 0.01
0.05 0.05 0.06 0.05 0.04 0.03 0.03 0.03 0.03 0.03 0.03 0.02 0.02 0.02 0.03 0.04 0.05 0.05 0.06 0.07 0.08 0.08 0.08 0.07 0.09 0.10 0.10 0.10 0.11 0.12 0.13 0.13 0.12 0.12 0.12 0.10 0.07 0.05 0.04 0.03 0.02 0.02 0.01
0.05 0.04 0.05 0.06 0.05 0.05 0.05 0.04 0.03 0.03 0.03 0.03 0.02 0.02 0.02 0.03 0.05 0.05 0.06 0.06 0.06 0.06 0.06 0.06 0.07 0.09 0.08 0.07 0.08 0.08 0.08 0.08 0.08 0.08 0.07 0.06 0.05 0.05 0.04 0.03 0.03 0.02 0.01
0.03 0.03 0.04 0.05 0.05 0.05 0.05 0.04 0.03 0.03 0.04 0.04 0.03 0.02 0.01 0.02 0.04 0.05 0.06 0.06 0.07 0.05 0.04 0.05 0.05 0.05 0.04 0.04 0.04 0.05 0.05 0.05 0.05 0.05 0.05 0.04 0.04 0.04 0.04 0.03 0.03 0.02 0.01
0.02 0.02 0.04 0.06 0.05 0.04 0.03 0.03 0.03 0.03 0.04 0.04 0.03 0.02 0.02 0.02 0.03 0.04 0.05 0.06 0.05 0.04 0.03 0.03 0.03 0.02 0.02 0.02 0.02 0.02 0.02 0.03 0.04 0.04 0.04 0.04 0.04 0.03 0.03 0.02 0.02 0.01 0.01
0.02 0.02 0.05 0.05 0.04 0.03 0.02 0.02 0.03 0.04 0.05 0.05 0.03 0.03 0.03 0.02 0.02 0.02 0.02 0.04 0.04 0.05 0.04 0.03 0.03 0.02 0.01 0.01 0.00 0.00 0.01 0.01 0.02 0.03 0.03 0.03 0.03 0.02 0.02 0.02 0.02 0.02 0.02
0.02 0.03 0.03 0.03 0.03 0.03 0.03 0.03 0.04 0.04 0.05 0.05 0.04 0.03 0.03 0.02 0.01 0.01 0.01 0.02 0.02 0.02 0.01 0.01 0.01 0.00 0.00 0.01 0.01 0.00 0.00 0.01 0.01 0.01 0.01 0.02 0.03 0.03 0.02 0.02 0.02 0.02 0.02
0.03 0.03 0.04 0.04 0.04 0.04 0.04 0.04 0.04 0.04 0.05 0.05 0.04 0.03 0.03 0.02 0.01 0.01 0.00 0.01 0.01 0.00 0.00 0.00 0.00 0.00 0.00 0.00 0.01 0.01 0.01 0.01 0.01 0.01 0.01 0.01 0.02 0.02 0.02 0.03 0.03 0.03 0.03
0.03 0.02 0.03 0.04 0.05 0.04 0.04 0.05 0.05 0.05 0.05 0.05 0.04 0.02 0.02 0.01 0.00 0.00 0.00 0.01 0.00 0.00 0.00 0.00 0.00 0.00 0.00 0.00 0.01 0.01 0.02 0.02 0.01 0.01 0.01 0.01 0.01 0.01 0.01 0.02 0.03 0.05 0.06
0.03 0.03 0.03 0.04 0.04 0.03 0.04 0.05 0.04 0.04 0.04 0.03 0.03 0.02 0.01 0.00 0.00 0.00 0.00 0.01 0.00 0.00 0.00 0.00 0.00 0.00 0.00 0.00 0.01 0.02 0.01 0.01 0.01 0.01 0.02 0.02 0.02 0.02 0.02 0.02 0.02 0.03 0.04
0.03 0.02 0.03 0.03 0.02 0.02 0.03 0.03 0.04 0.04 0.04 0.03 0.03 0.02 0.01 0.00 0.00 0.00 0.00 0.00 0.00 0.00 0.00 0.00 0.00 0.01 0.01 0.00 0.00 0.01 0.00 0.01 0.01 0.01 0.01 0.02 0.02 0.02 0.01 0.01 0.01 0.01 0.02
0.03 0.03 0.03 0.02 0.02 0.03 0.03 0.03 0.04 0.03 0.03 0.02 0.02 0.01 0.01 0.00 0.00 0.00 0.00 0.00 0.00 0.00 0.00 0.00 0.00 0.00 0.00 0.00 0.00 0.00 0.00 0.01 0.01 0.02 0.02 0.01 0.01 0.01 0.01 0.01 0.01 0.01 0.01
0.03 0.03 0.03 0.03 0.03 0.03 0.03 0.02 0.03 0.03 0.03 0.02 0.01 0.01 0.00 0.00 0.00 0.00 0.01 0.00 0.00 0.00 0.00 0.00 0.00 0.00 0.00 0.00 0.00 0.00 0.00 0.01 0.01 0.01 0.01 0.01 0.01 0.01 0.01 0.02 0.02 0.01 0.01
0.02 0.02 0.02 0.02 0.02 0.02 0.02 0.02 0.02 0.02 0.01 0.01 0.01 0.01 0.00 0.00 0.00 0.00 0.00 0.01 0.00 0.00 0.00 0.00 0.00 0.00 0.00 0.00 0.00 0.00 0.01 0.01 0.01 0.01 0.01 0.01 0.01 0.01 0.01 0.01 0.00 0.00 0.00
0.02 0.01 0.01 0.01 0.01 0.01 0.01 0.01 0.00 0.00 0.00 0.00 0.00 0.00 0.00 0.00 0.00 0.00 0.00 0.00 0.00 0.00 0.00 0.01 0.01 0.01 0.00 0.00 0.00 0.00 0.00 0.01 0.01 0.01 0.01 0.01 0.01 0.00 0.00 0.00 0.00 0.00 0.00
0.02 0.02 0.01 0.01 0.01 0.01 0.01 0.01 0.01 0.00 0.00 0.00 0.00 0.00 0.00 0.00 0.00 0.00 0.00 0.00 0.00 0.00 0.01 0.01 0.01 0.01 0.00 0.00 0.00 0.00 0.00 0.00 0.00 0.00 0.01 0.01 0.00 0.00 0.00 0.00 0.00 0.00 0.00
0.01 0.01 0.01 0.01 0.01 0.01 0.00 0.01 0.01 0.01 0.00 0.00 0.00 0.00 0.00 0.00 0.00 0.00 0.00 0.00 0.01 0.01 0.01 0.00 0.00 0.00 0.00 0.00 0.00 0.00 0.00 0.00 0.00 0.00 0.00 0.00 0.00 0.00 0.00 0.00 0.00 0.00 0.00
0.01 0.01 0.01 0.01 0.00 0.00 0.00 0.00 0.00 0.00 0.00 0.00 0.00 0.00 0.00 0.00 0.00 0.00 0.00 0.01 0.01 0.00 0.00 0.00 0.00 0.00 0.00 0.00 0.00 0.00 0.00 0.00 0.00 0.00 0.00 0.00 0.00 0.00 0.00 0.00 0.00 0.00 0.00
0.00 0.00 0.00 0.01 0.01 0.00 0.00 0.00 0.00 0.00 0.00 0.00 0.00 0.00 0.00 0.00 0.01 0.01 0.01 0.01 0.01 0.00 0.00 0.00 0.00 0.00 0.00 0.00 0.00 0.00 0.00 0.00 0.00 0.00 0.00 0.00 0.00 0.00 0.00 0.00 0.00 0.00 0.00
0.00 0.00 0.00 0.00 0.00 0.00 0.00 0.00 0.00 0.00 0.00 0.00 0.00 0.00 0.00 0.00 0.00 0.00 0.00 0.00 0.00 0.00 0.00 0.00 0.00 0.00 0.00 0.00 0.00 0.00 0.00 0.00 0.00 0.00 0.00 0.00 0.00 0.00 0.00 0.00 0.00 0.00 0.00
0.00 0.00 0.00 0.00 0.00 0.00 0.00 0.00 0.00 0.00 0.00 0.00 0.00 0.00 0.00 0.00 0.00 0.00 0.00 0.00 0.00 0.00 0.00 0.00 0.00 0.00 0.00 0.00 0.00 0.00 0.00 0.00 0.00 0.00 0.00 0.00 0.00 0.00 0.00 0.00 0.00 0.00 0.00
0.00 0.00 0.00 0.00 0.00 0.00 0.00 0.01 0.00 0.00 0.00 0.00 0.00 0.00 0.00 0.00 0.00 0.00 0.00 0.00 0.00 0.00 0.00 0.00 0.00 0.00 0.00 0.00 0.00 0.00 0.00 0.00 0.00 0.00 0.00 0.00 0.00 0.00 0.00 0.00 0.00 0.00 0.00
0.00 0.00 0.00 0.00 0.00 0.00 0.00 0.00 0.00 0.00 0.00 0.00 0.00 0.00 0.00 0.00 0.00 0.00 0.00 0.00 0.00 0.00 0.00 0.00 0.00 0.00 0.00 0.00 0.00 0.00 0.00 0.00 0.00 0.00 0.00 0.00 0.00 0.00 0.00 0.00 0.00 0.00 0.00
0.00 0.00 0.00 0.00 0.00 0.00 0.00 0.00 0.00 0.00 0.00 0.00 0.00 0.00 0.00 0.00 0.00 0.00 0.00 0.00 0.00 0.00 0.00 0.00 0.00 0.00 0.00 0.00 0.00 0.00 0.00 0.00 0.00 0.00 0.00 0.00 0.00 0.00 0.00 0.00 0.00 0.00 0.00
0.00 0.00 0.00 0.00 0.00 0.00 0.00 0.00 0.00 0.00 0.00 0.00 0.00 0.00 0.00 0.00 0.00 0.00 0.00 0.00 0.00 0.00 0.00 0.00 0.00 0.00 0.00 0.00 0.00 0.00 0.00 0.00 0.00 0.00 0.00 0.00 0.00 0.00 0.00 0.00 0.00 0.00 0.00
MSLP
1020.21 1020.01 1019.81 1019.62 1019.41 1019.21 1019.00 1018.80 1018.60 1018.42 1018.26 1018.11 1017.98 1017.86 1017.74 1017.65 1017.57 1017.52 1017.50 1017.52 1017.57 1017.66 1017.79 1017.95 1018.17 1018.44 1018.78 1019.20 1019.70 1020.28 1020.93 1021.61 1022.31 1022.99 1023.60 1024.14 1024.58 1024.92 1025.18 1025.38 1025.56 1025.75 1025.97
1020.70 1020.51 1020.33 1020.15 1019.98 1019.79 1019.61 1019.43 1019.25 1019.08 1018.92 1018.77 1018.64 1018.51 1018.41 1018.32 1018.25 1018.21 1018.19 1018.20 1018.23 1018.28 1018.35 1018.44 1018.56 1018.72 1018.93 1019.23 1019.60 1020.06 1020.59 1021.18 1021.81 1022.43 1023.02 1023.54 1023.97 1024.32 1024.59 1024.81 1025.00 1025.19 1025.42
1021.22 1021.03 1020.86 1020.70 1020.54 1020.39 1020.24 1020.09 1019.95 1019.81 1019.68 1019.56 1019.45 1019.34 1019.24 1019.16 1019.09 1019.04 1019.01 1019.00 1018.99 1018.99 1019.00 1019.01 1019.04 1019.10 1019.21 1019.38 1019.63 1019.97 1020.39 1020.89 1021.43 1021.99 1022.53 1023.02 1023.44 1023.79 1024.06 1024.28 1024.47 1024.66 1024.88
1021.74 1021.57 1021.41 1021.26 1021.13 1021.01 1020.90 1020.80 1020.70 1020.62 1020.54 1020.46 1020.37 1020.29 1020.20 1020.12 1020.04 1019.97 1019.91 1019.86 1019.82 1019.77 1019.72 1019.67 1019.63 1019.61 1019.63 1019.71 1019.86 1020.09 1020.41 1020.81 1021.27 1021.76 1022.25 1022.71 1023.10 1023.44 1023.71 1023.92 1024.10 1024.27 1024.45
1022.24 1022.09 1021.95 1021.82 1021.71 1021.62 1021.55 1021.50 1021.47 1021.45 1021.42 1021.39 1021.35 1021.28 1021.21 1021.12 1021.02 1020.92 1020.83 1020.74 1020.66 1020.57 1020.49 1020.40 1020.32 1020.25 1020.22 1020.23 1020.31 1020.46 1020.70 1021.01 1021.39 1021.81 1022.23 1022.64 1023.01 1023.32 1023.57 1023.76 1023.92 1024.05 1024.19
1022.70 1022.57 1022.45 1022.34 1022.25 1022.19 1022.16 1022.17 1022.19 1022.23 1022.26 1022.28 1022.27 1022.23 1022.16 1022.06 1021.94 1021.82 1021.70 1021.58 1021.47 1021.37 1021.27 1021.17 1021.08 1021.01 1020.95 1020.93 1020.96 1021.05 1021.22 1021.46 1021.76 1022.10 1022.46 1022.82 1023.14 1023.42 1023.64 1023.81 1023.93 1024.02 1024.10
1023.09 1022.98 1022.87 1022.78 1022.70 1022.67 1022.68 1022.72 1022.79 1022.88 1022.96 1023.02 1023.05 1023.03 1022.96 1022.86 1022.73 1022.59 1022.45 1022.32 1022.20 1022.11 1022.03 1021.95 1021.89 1021.82 1021.78 1021.75 1021.76 1021.81 1021.92 1022.08 1022.31 1022.57 1022.86 1023.15 1023.43 1023.66 1023.85 1023.98 1024.06 1024.11 1024.13
1023.37 1023.28 1023.18 1023.09 1023.03 1023.01 1023.04 1023.12 1023.23 1023.35 1023.47 1023.57 1023.62 1023.62 1023.56 1023.46 1023.33 1023.19 1023.05 1022.93 1022.83 1022.77 1022.72 1022.70 1022.67 1022.65 1022.63 1022.61 1022.61 1022.63 1022.68 1022.78 1022.92 1023.10 1023.32 1023.54 1023.75 1023.94 1024.08 1024.18 1024.23 1024.24 1024.21
1023.53 1023.45 1023.36 1023.28 1023.22 1023.21 1023.25 1023.35 1023.48 1023.63 1023.78 1023.90 1023.98 1024.00 1023.96 1023.87 1023.76 1023.63 1023.51 1023.41 1023.36 1023.33 1023.34 1023.37 1023.40 1023.42 1023.43 1023.43 1023.41 1023.40 1023.40 1023.43 1023.49 1023.59 1023.71 1023.86 1024.01 1024.15 1024.26 1024.33 1024.35 1024.33 1024.27
1023.58 1023.51 1023.42 1023.35 1023.29 1023.29 1023.34 1023.45 1023.60 1023.77 1023.94 1024.08 1024.18 1024.22 1024.21 1024.15 1024.05 1023.95 1023.86 1023.80 1023.79 1023.81 1023.87 1023.94 1024.02 1024.08 1024.11 1024.11 1024.09 1024.04 1023.98 1023.94 1023.92 1023.94 1023.98 1024.06 1024.15 1024.24 1024.31 1024.36 1024.37 1024.33 1024.25
1023.56 1023.50 1023.42 1023.35 1023.30 1023.31 1023.37 1023.49 1023.65 1023.83 1024.02 1024.19 1024.31 1024.38 1024.40 1024.36 1024.30 1024.22 1024.17 1024.14 1024.16 1024.21 1024.30 1024.41 1024.51 1024.59 1024.63 1024.62 1024.57 1024.49 1024.38 1024.27 1024.18 1024.12 1024.10 1024.10 1024.14 1024.19 1024.24 1024.27 1024.27 1024.23 1024.14
1023.52 1023.47 1023.40 1023.34 1023.32 1023.33 1023.41 1023.54 1023.72 1023.92 1024.13 1024.32 1024.47 1024.57 1024.61 1024.60 1024.57 1024.52 1024.48 1024.47 1024.50 1024.56 1024.66 1024.76 1024.86 1024.93 1024.95 1024.93 1024.85 1024.73 1024.58 1024.42 1024.28 1024.16 1024.07 1024.03 1024.02 1024.04 1024.06 1024.08 1024.07 1024.03 1023.95
1023.51 1023.48 1023.43 1023.40 1023.39 1023.43 1023.52 1023.67 1023.87 1024.09 1024.32 1024.54 1024.72 1024.84 1024.91 1024.93 1024.91 1024.87 1024.84 1024.82 1024.83 1024.87 1024.93 1025.00 1025.06 1025.10 1025.09 1025.04 1024.93 1024.78 1024.61 1024.42 1024.24 1024.09 1023.97 1023.89 1023.85 1023.84 1023.84 1023.84 1023.83 1023.79 1023.71
1023.58 1023.57 1023.55 1023.53 1023.55 1023.61 1023.73 1023.90 1024.11 1024.36 1024.62 1024.86 1025.06 1025.21 1025.31 1025.34 1025.33 1025.29 1025.23 1025.18 1025.14 1025.12 1025.12 1025.13 1025.13 1025.12 1025.07 1024.99 1024.86 1024.70 1024.52 1024.32 1024.14 1023.98 1023.85 1023.75 1023.69 1023.66 1023.64 1023.62 1023.59 1023.53 1023.45
1023.73 1023.74 1023.74 1023.75 1023.79 1023.87 1024.00 1024.19 1024.42 1024.69 1024.97 1025.23 1025.46 1025.64 1025.75 1025.79 1025.78 1025.71 1025.62 1025.51 1025.40 1025.31 1025.22 1025.15 1025.08 1025.01 1024.92 1024.81 1024.68 1024.53 1024.36 1024.19 1024.03 1023.88 1023.76 1023.66 1023.58 1023.53 1023.48 1023.43 1023.37 1023.29 1023.19
1023.95 1023.97 1023.99 1024.01 1024.05 1024.14 1024.27 1024.46 1024.71 1024.99 1025.28 1025.57 1025.82 1026.01 1026.14 1026.19 1026.16 1026.07 1025.94 1025.77 1025.58 1025.40 1025.23 1025.08 1024.94 1024.81 1024.69 1024.57 1024.45 1024.33 1024.20 1024.07 1023.95 1023.83 1023.73 1023.64 1023.55 1023.47 1023.39 1023.31 1023.21 1023.09 1022.95
1024.18 1024.20 1024.21 1024.22 1024.26 1024.33 1024.45 1024.63 1024.87 1025.15 1025.45 1025.75 1026.02 1026.24 1026.38 1026.43 1026.40 1026.29 1026.11 1025.89 1025.64 1025.39 1025.14 1024.92 1024.72 1024.56 1024.42 1024.31 1024.22 1024.14 1024.06 1023.99 1023.92 1023.84 1023.76 1023.68 1023.58 1023.48 1023.36 1023.23 1023.07 1022.90 1022.72
1024.36 1024.37 1024.36 1024.34 1024.34 1024.37 1024.47 1024.62 1024.84 1025.10 1025.40 1025.71 1025.99 1026.22 1026.38 1026.45 1026.43 1026.31 1026.11 1025.86 1025.56 1025.26 1024.97 1024.70 1024.48 1024.30 1024.17 1024.08 1024.03 1024.00 1023.98 1023.97 1023.95 1023.91 1023.85 1023.76 1023.65 1023.51 1023.35 1023.16 1022.96 1022.73 1022.50
1024.45 1024.43 1024.37 1024.31 1024.25 1024.24 1024.28 1024.39 1024.57 1024.82 1025.11 1025.41 1025.71 1025.96 1026.14 1026.23 1026.22 1026.12 1025.92 1025.66 1025.36 1025.04 1024.73 1024.45 1024.23 1024.06 1023.95 1023.90 1023.90 1023.93 1023.96 1024.00 1024.01 1024.00 1023.95 1023.86 1023.72 1023.55 1023.34 1023.10 1022.84 1022.57 1022.29
1024.42 1024.36 1024.25 1024.12 1024.01 1023.93 1023.92 1023.97 1024.11 1024.33 1024.59 1024.90 1025.20 1025.47 1025.68 1025.80 1025.82 1025.75 1025.58 1025.34 1025.06 1024.75 1024.46 1024.21 1024.01 1023.87 1023.80 1023.80 1023.84 1023.91 1024.00 1024.07 1024.11 1024.11 1024.05 1023.94 1023.78 1023.56 1023.31 1023.03 1022.72 1022.41 1022.10
1024.28 1024.17 1024.02 1023.84 1023.66 1023.52 1023.44 1023.45 1023.54 1023.72 1023.96 1024.26 1024.56 1024.85 1025.08 1025.24 1025.30 1025.26 1025.14 1024.95 1024.70 1024.44 1024.19 1023.98 1023.82 1023.73 1023.71 1023.76 1023.84 1023.95 1024.06 1024.15 1024.20 1024.20 1024.13 1024.00 1023.80 1023.55 1023.26 1022.95 1022.61 1022.28 1021.94
1024.07 1023.93 1023.73 1023.50 1023.27 1023.08 1022.95 1022.91 1022.96 1023.11 1023.33 1023.61 1023.91 1024.20 1024.45 1024.63 1024.73 1024.74 1024.66 1024.52 1024.33 1024.12 1023.93 1023.77 1023.67 1023.64 1023.66 1023.75 1023.87 1024.01 1024.14 1024.23 1024.28 1024.26 1024.17 1024.01 1023.79 1023.52 1023.20 1022.87 1022.52 1022.17 1021.84
1023.84 1023.67 1023.45 1023.19 1022.93 1022.71 1022.55 1022.47 1022.48 1022.60 1022.79 1023.05 1023.33 1023.62 1023.87 1024.07 1024.19 1024.23 1024.19 1024.09 1023.96 1023.80 1023.67 1023.57 1023.52 1023.53 1023.60 1023.73 1023.88 1024.03 1024.17 1024.27 1024.30 1024.27 1024.16 1023.99 1023.75 1023.46 1023.14 1022.80 1022.45 1022.11 1021.78
1023.61 1023.44 1023.21 1022.95 1022.68 1022.44 1022.26 1022.17 1022.16 1022.24 1022.41 1022.63 1022.90 1023.16 1023.40 1023.58 1023.71 1023.76 1023.74 1023.67 1023.57 1023.46 1023.37 1023.32 1023.32 1023.37 1023.48 1023.64 1023.81 1023.97 1024.12 1024.21 1024.24 1024.20 1024.09 1023.90 1023.65 1023.37 1023.05 1022.72 1022.39 1022.06 1021.75
1023.40 1023.25 1023.03 1022.78 1022.52 1022.29 1022.11 1022.00 1021.98 1022.04 1022.17 1022.36 1022.58 1022.81 1023.01 1023.17 1023.27 1023.31 1023.29 1023.23 1023.15 1023.07 1023.00 1022.99 1023.02 1023.11 1023.25 1023.42 1023.61 1023.79 1023.94 1024.04 1024.07 1024.03 1023.92 1023.73 1023.50 1023.22 1022.92 1022.61 1022.30 1021.99 1021.69
1023.18 1023.05 1022.86 1022.63 1022.40 1022.19 1022.02 1021.91 1021.88 1021.92 1022.02 1022.17 1022.34 1022.51 1022.66 1022.78 1022.84 1022.84 1022.81 1022.73 1022.65 1022.58 1022.53 1022.53 1022.59 1022.70 1022.85 1023.04 1023.25 1023.44 1023.60 1023.71 1023.75 1023.72 1023.62 1023.45 1023.23 1022.98 1022.70 1022.41 1022.12 1021.83 1021.54
Thickness
5592 5591 5591 5590 5590 5591 5590 5590 5591 5592 5593 5595 5597 5599 5601 5602 5604 5606 5609 5611 5612 5613 5615 5617 5617 5619 5620 5620 5620 5619 5617 5615 5607 5598 5594 5589 5586 5585 5582 5580 5578 5575 5572
5582 5581 5580 5579 5579 5579 5578 5578 5580 5581 5582 5584 5586 5587 5589 5591 5593 5595 5597 5598 5600 5602 5603 5605 5606 5607 5608 5608 5608 5607 5605 5604 5601 5593 5587 5582 5579 5576 5574 5571 5571 5569 5566
5573 5572 5570 5569 5568 5567 5566 5567 5568 5569 5571 5572 5574 5576 5578 5579 5581 5582 5584 5586 5587 5589 5591 5593 5594 5595 5596 5596 5596 5596 5595 5593 5590 5586 5580 5575 5572 5569 5567 5565 5563 5560 5559
5563 5562 5560 5558 5557 5556 5556 5556 5557 5558 5560 5561 5563 5564 5565 5567 5569 5570 5572 5573 5575 5576 5578 5580 5581 5583 5584 5584 5585 5585 5584 5583 5580 5577 5573 5569 5565 5562 5561 5559 5556 5554 5553
5554 5552 5550 5548 5547 5547 5546 5546 5547 5548 5549 5550 5552 5552 5553 5555 5555 5557 5560 5562 5564 5565 5566 5566 5567 5567 5569 5571 5574 5574 5574 5573 5571 5568 5565 5562 5558 5555 5554 5552 5550 5547 5545
5547 5545 5542 5540 5539 5538 5537 5537 5537 5538 5539 5540 5541 5541 5542 5541 5540 5543 5548 5551 5553 5553 5554 5555 5555 5555 5555 5556 5557 5558 5559 5561 5561 5559 5557 5553 5549 5547 5545 5544 5543 5542 5539
5539 5537 5535 5533 5531 5530 5530 5529 5529 5529 5530 5530 5530 5531 5530 5528 5529 5532 5535 5540 5541 5541 5542 5544 5546 5544 5546 5547 5546 5545 5545 5545 5545 5548 5547 5544 5540 5538 5536 5535 5532 5532 5529
5534 5531 5529 5526 5524 5523 5522 5521 5521 5521 5521 5521 5521 5522 5521 5518 5519 5522 5525 5529 5530 5530 5531 5532 5533 5533 5533 5535 5537 5536 5535 5534 5534 5535 5534 5532 5530 5527 5526 5525 5523 5522 5521
5527 5525 5522 5520 5518 5517 5516 5515 5514 5514 5514 5514 5514 5514 5514 5511 5511 5514 5518 5522 5522 5521 5522 5521 5523 5523 5520 5522 5527 5527 5526 5524 5522 5521 5520 5519 5517 5516 5516 5519 5519 5519 5518
5521 5519 5516 5514 5512 5511 5510 5509 5508 5508 5508 5509 5507 5507 5507 5505 5504 5507 5510 5517 5516 5516 5514 5513 5510 5511 5511 5513 5518 5519 5518 5517 5517 5515 5512 5511 5511 5510 5508 5509 5512 5513 5512
5516 5513 5510 5509 5507 5506 5504 5503 5503 5504 5503 5503 5503 5502 5501 5499 5499 5500 5503 5509 5511 5512 5512 5510 5505 5502 5504 5506 5508 5510 5507 5508 5511 5511 5510 5510 5508 5507 5506 5505 5504 5505 5505
5512 5510 5507 5505 5505 5503 5501 5500 5500 5500 5500 5500 5500 5500 5498 5497 5495 5495 5496 5499 5501 5505 5506 5505 5500 5497 5498 5499 5501 5499 5501 5502 5508 5508 5508 5507 5506 5504 5503 5501 5499 5499 5498
5510 5507 5505 5503 5502 5500 5499 5499 5499 5500 5502 5502 5501 5501 5500 5498 5494 5492 5493 5494 5496 5498 5498 5494 5494 5494 5494 5497 5495 5496 5498 5503 5504 5504 5503 5502 5501 5499 5498 5497 5497 5496 5496
5508 5506 5504 5502 5500 5498 5499 5500 5500 5500 5500 5501 5501 5501 5501 5500 5498 5497 5497 5497 5494 5497 5497 5493 5492 5493 5494 5493 5495 5497 5499 5498 5499 5499 5499 5498 5498 5497 5497 5497 5496 5497 5498
5508 5506 5504 5503 5501 5499 5497 5495 5497 5495 5495 5497 5500 5501 5501 5499 5491 5488 5492 5496 5496 5496 5496 5499 5500 5499 5499 5498 5498 5497 5497 5497 5496 5496 5496 5496 5496 5496 5496 5496 5495 5496 5497
5509 5508 5507 5506 5503 5503 5500 5496 5489 5491 5490 5490 5490 5492 5493 5490 5488 5488 5489 5489 5490 5490 5495 5499 5499 5499 5499 5499 5498 5497 5496 5495 5494 5494 5494 5495 5495 5495 5495 5495 5495 5495 5496
5511 5510 5510 5509 5507 5506 5505 5504 5500 5493 5490 5490 5491 5491 5490 5489 5489 5489 5489 5490 5491 5491 5498 5500 5499 5498 5498 5498 5497 5496 5495 5493 5491 5493 5494 5494 5494 5494 5494 5494 5495 5495 5496
5514 5510 5511 5510 5510 5509 5508 5508 5507 5507 5505 5501 5495 5493 5492 5492 5491 5492 5492 5492 5499 5499 5502 5502 5500 5499 5499 5498 5497 5496 5495 5494 5494 5494 5494 5494 5494 5494 5494 5494 5495 5494 5495
5518 5516 5515 5514 5514 5513 5513 5513 5513 5512 5511 5510 5508 5501 5496 5496 5495 5495 5496 5502 5506 5506 5505 5504 5502 5501 5500 5499 5498 5497 5495 5495 5494 5494 5494 5493 5494 5494 5494 5495 5496 5493 5493
5520 5515 5516 5519 5519 5519 5518 5518 5518 5517 5516 5515 5514 5512 5509 5507 5509 5508 5506 5508 5509 5508 5507 5506 5504 5503 5502 5501 5500 5500 5499 5498 5496 5496 5496 5495 5495 5495 5495 5495 5496 5497 5497
5528 5523 5518 5524 5525 5525 5524 5524 5523 5522 5522 5521 5520 5516 5509 5516 5516 5515 5515 5514 5513 5512 5510 5509 5508 5507 5506 5505 5505 5504 5501 5501 5499 5498 5498 5497 5497 5497 5496 5497 5498 5499 5500
5535 5534 5533 5533 5532 5531 5530 5530 5530 5529 5529 5527 5526 5522 5514 5519 5522 5522 5521 5519 5517 5515 5514 5512 5513 5512 5510 5509 5507 5506 5505 5504 5502 5501 5499 5499 5499 5499 5499 5499 5499 5500 5500
5541 5541 5539 5539 5538 5533 5534 5536 5536 5536 5535 5534 5534 5532 5530 5529 5529 5527 5526 5524 5522 5520 5519 5517 5515 5516 5514 5511 5509 5507 5507 5506 5503 5501 5499 5499 5500 5500 5500 5500 5499 5500 5501
5547 5547 5546 5545 5544 5544 5544 5543 5543 5542 5541 5540 5539 5539 5538 5535 5534 5533 5532 5530 5529 5526 5525 5523 5521 5520 5516 5514 5512 5512 5510 5506 5503 5502 5500 5499 5500 5500 5501 5501 5500 5501 5500
5554 5553 5553 5552 5552 5551 5551 5550 5550 5548 5548 5547 5546 5545 5545 5543 5542 5541 5539 5537 5535 5533 5531 5529 5527 5525 5523 5520 5518 5516 5512 5508 5505 5503 5501 5501 5501 5501 5501 5501 5501 5501 5500
5561 5560 5559 5559 5558 5557 5557 5556 5556 5555 5554 5553 5553 5552 5551 5550 5549 5548 5546 5544 5543 5541 5538 5536 5534 5531 5528 5526 5523 5520 5516 5512 5509 5505 5502 5503 5503 5503 5503 5502 5502 5501 5501